Location: Bergues
(50.0339°N, 3.7055°E)
Time: 16:33:21
(UTC+00:00)

Daily predictions for brighter satellites

Satellite Brightness Start Highest point End
(mag) Time Altitude Azimuth Time Altitude Azimuth Time Altitude Azimuth
NOSS 3-3 (A) 3.9 17:21:33 10° SSW 17:26:32 52° ESE 17:32:29 10° NE
CARTOSAT-1 4.5 17:25:39 10° ESE 17:29:07 26° ENE 17:32:36 10° N
Cosmos 1802 Rocket 4.3 17:27:35 10° NNW 17:34:01 79° W 17:40:26 10° S
Cosmos 2285 Rocket 4.1 17:29:59 10° NNW 17:36:22 59° ENE 17:42:40 10° SE
Cosmos 2233 Rocket 4.0 17:30:37 10° N 17:36:55 73° E 17:43:13 10° SSE
CZ-4 R/B 4.3 17:33:39 10° SSE 17:37:35 66° ENE 17:41:33 10° N
USA 290 2.5 17:34:35 10° SSW 17:37:45 68° WNW 17:40:56 10° NNE
NOSS 0 Rocket 4.0 17:32:40 10° NNW 17:38:59 86° ENE 17:45:13 10° SSE
USA 306 4.0 17:37:53 10° W 17:40:27 24° SW 17:42:19 10° SSE
ARIANE 6 FM1 Upper Stage 4.1 17:38:56 10° NNW 17:42:00 21° NNE 17:45:03 10° ENE
NOSS 3-4 (A) 3.9 17:38:20 10° NW 17:44:45 58° NE 17:52:19 10° ESE
NOSS 3-4 (C) 3.9 17:38:36 10° NW 17:45:02 58° NE 17:52:36 10° ESE
Cosmos 1725 Rocket 4.4 17:39:26 10° NNW 17:45:40 72° W 17:51:54 10° S
Cosmos 2151 Rocket 3.8 17:44:55 10° NNW 17:49:26 82° W 17:53:56 10° S
Meteor 1-11 4.3 17:46:33 10° S 17:52:12 88° E 17:57:59 10° NNE
Radarsat Rocket 4.0 17:49:31 10° SE 17:55:19 64° ENE 18:01:39 10° NNW
Cosmos 1607 4.0 17:49:29 10° SW 17:55:37 83° NW 18:01:52 10° NE
Cosmos 1455 Rocket 3.4 17:52:58 10° N 17:57:04 41° ENE 18:01:08 10° SE
Cosmos 44 Rocket 4.3 17:55:09 10° S 17:59:19 28° ESE 18:03:10 12° ENE
YAOGAN 1 2.4 17:55:26 10° SSE 17:59:41 77° ENE 18:03:57 10° N
Cosmos 2228 3.9 17:56:20 10° NNE 17:59:54 26° ENE 18:03:28 10° SE
Cosmos 1975 Rocket 4.2 17:56:39 10° SE 17:59:59 22° E 18:03:20 10° NE
COSMO-SKYMED 1 2.7 17:56:30 10° NNE 18:00:28 44° E 18:04:24 10° S
PSLV R/B 3.6 17:56:31 10° SE 18:00:30 50° ENE 18:04:29 10° N
ATLAS 2AS CENTAUR R/B 4.0 17:55:04 10° W 18:01:05 31° NNW 18:07:01 10° NE
Cosmos 1782 4.0 17:59:06 10° NNE 18:01:42 18° ENE 18:03:12 15° E
Cosmos 2297 Rocket 2.4 17:56:36 10° S 18:02:03 52° ESE 18:07:33 10° NE
Lacrosse 5 rocket 2.1 18:00:11 10° W 18:03:27 36° NNW 18:06:24 12° NE
DNEPR-1 R/B 4.2 18:00:06 10° NNW 18:04:41 48° NE 18:10:06 10° ESE
SPOT 1/Viking Rocket 4.2 18:01:39 10° S 18:06:42 61° W 18:11:48 10° NNW
Cosmos 2061 Rocket 4.2 18:00:57 10° NNW 18:07:22 81° W 18:13:39 10° S
Aureole 3 Rocket 2.4 18:03:33 10° N 18:07:34 70° ENE 18:10:47 10° SSE
CZ-2D R/B 3.3 18:05:36 10° SSE 18:09:31 84° ENE 18:13:33 10° NNW
Okean 1 Rocket 3.3 18:08:02 10° NNW 18:12:26 72° W 18:16:46 10° S
SL-16 R/B 4.3 18:07:16 10° N 18:12:36 31° WNW 18:17:56 10° WSW
CZ-4C R/B 2.1 18:08:57 10° SW 18:13:17 69° NW 18:18:55 10° NE
Cosmos 1464 Rocket 4.2 18:10:43 10° N 18:16:52 47° ENE 18:22:54 10° SSE
Okean 2 Rocket 3.8 18:13:22 10° NNW 18:17:40 55° W 18:21:56 10° S
Cosmos 2344 4.3 18:13:08 10° S 18:19:35 28° ESE 18:23:43 17° ENE
Cosmos 2221 Rocket 3.7 18:15:40 10° SSW 18:20:08 83° W 18:24:41 10° N
USA 267 3.4 18:15:08 12° ENE 18:21:13 71° NNW 18:27:43 10° WSW
SJ-6B 2.8 18:21:09 10° SE 18:24:23 41° ENE 18:27:39 10° N
Cosmos 1980 4.1 18:24:32 10° NNW 18:30:10 68° WSW 18:35:45 10° SSE
Cosmos 2263 Rocket 3.2 18:26:11 10° SSE 18:30:39 24° ESE 18:31:44 23° E
Cosmos 1025 Rocket 3.9 18:26:34 10° SSW 18:30:46 51° WNW 18:35:02 10° N
Cosmos 2237 Rocket 2.6 18:29:48 10° NNW 18:35:27 67° WSW 18:41:05 10° SSE
Meteor 1-31 Rocket 3.6 18:36:36 26° NE 18:36:36 26° NE 18:38:51 10° N
Meteor 1-27 4.3 18:32:07 10° NNW 18:37:56 88° W 18:43:46 10° S
SeaSat 1 4.4 18:37:58 10° S 18:42:14 30° WSW 18:46:33 10° NW
Cosmos 1570 Rocket 3.9 18:38:04 10° SSW 18:43:21 85° ESE 18:48:39 10° NNE
Resurs 01 Rocket 1.6 18:39:19 10° SSE 18:43:43 82° WSW 18:48:10 10° NNW
SPOT 5 3.2 18:45:52 27° ESE 18:48:06 43° ENE 18:52:55 10° N
NOSS 3-3 (C) 4.2 18:44:54 10° WSW 18:50:13 61° NW 18:55:59 13° NE
DMSP B5D1-3 4.4 18:47:44 10° NNE 18:52:52 84° ESE 18:57:59 10° SSW
Tiangong 0.1 18:53:55 10° SSW 18:55:41 16° S 18:55:41 16° S
Cosmos 2227 Rocket 2.1 18:55:45 10° SSW 19:01:19 64° ESE 19:05:16 20° NE
SL-16 R/B 2.1 18:55:46 10° NNW 19:01:26 65° ENE 19:03:59 33° SE
Cosmos 773 Rocket 4.0 18:58:58 10° SSW 19:04:15 84° WNW 19:09:35 10° NNE
Cosmos 1346 Rocket 3.6 19:00:45 10° S 19:02:49 32° S 19:02:49 32° S
Cosmos 2208 Rocket 4.0 18:59:13 10° SSW 19:04:28 89° WNW 19:09:50 10° NNE
Tsikada Rocket 4.2 19:02:28 10° SSE 19:08:10 42° E 19:13:56 10° NNE
CZ-4 R/B 2.6 19:17:56 27° N 19:17:56 27° N 19:19:47 10° N
Okean O Rocket 4.0 19:20:31 12° NNE 19:20:31 12° NNE 19:20:52 10° NNE
ARIANE 6 FM1 Upper Stage 2.8 19:17:39 10° NW 19:21:05 61° NNW 19:21:05 61° NNW
CZ-4B R/B 3.4 19:26:08 48° NE 19:26:08 48° NE 19:30:43 10° N
Terra 3.2 19:30:49 26° NNE 19:30:49 26° NNE 19:33:08 10° N
Cosmos 1544 Rocket 3.5 19:25:23 10° NNW 19:29:44 79° W 19:30:03 73° SSW
CZ-4B DEB 4.0 19:29:06 54° SE 19:30:20 76° ENE 19:35:48 10° NNW
CSL-04 Debris 4.1 19:30:41 34° SSE 19:33:08 87° WSW 19:38:37 10° NNW
Cosmos 2034 Rocket 4.0 19:28:34 10° NNW 19:34:44 77° W 19:40:55 10° S
Cosmos 1782 4.0 19:33:15 10° NNW 19:36:34 36° W 19:37:19 32° WSW
Cosmos 1975 Rocket 4.2 19:33:19 10° SW 19:37:27 42° WNW 19:41:35 10° N
TSX-5 4.2 19:32:19 10° NNW 19:37:23 82° NW 19:37:23 82° NW
CSL-04 Rocket 3.7 19:35:11 31° S 19:37:48 75° WSW 19:43:06 10° NNW
RESURS DK-1 4.3 19:34:14 10° NNW 19:35:40 20° N 19:35:40 20° N
Cosmos 44 Rocket 3.9 19:35:33 10° SW 19:40:26 57° NW 19:41:49 43° N
Lacrosse 5 rocket 3.1 19:37:53 10° NW 19:39:50 22° NNW 19:39:50 22° NNW
MOS 1 4.2 19:41:21 70° ENE 19:41:21 70° ENE 19:47:01 10° NNW
Cosmos 1634 Rocket 3.9 19:35:50 10° N 19:42:10 73° ENE 19:43:02 64° SE
Cosmos 2297 Rocket 3.7 19:41:11 10° WSW 19:46:19 35° NW 19:51:29 10° NNE
Cosmos 1943 3.5 19:43:41 10° NNW 19:48:32 54° NNE 19:48:32 54° NNE
ATLAS 2AS CENTAUR R/B 3.9 19:48:21 10° NW 19:54:02 27° N 19:55:21 25° NNE
BREEZE-M DEB (TANK) 3.8 19:38:52 10° W 19:55:43 67° S 19:56:30 62° SSE
ERS-1 Rocket 3.8 20:02:09 42° NNW 20:02:09 42° NNW 20:05:25 10° NNW
CZ-4C R/B 3.8 19:58:22 10° WNW 20:02:36 26° NNW 20:04:22 23° NNE
BREEZE-M DEB (TANK) 4.3 19:58:09 10° SW 20:03:04 63° SE 20:04:47 55° ESE
USA 267 3.8 20:02:29 43° NNE 20:03:49 49° N 20:10:04 10° WNW
Cosmos 972 Rocket 4.5 19:58:51 10° NNW 20:02:46 56° NW 20:02:46 56° NW
Cosmos 2279 Rocket 4.2 19:58:23 10° N 20:03:21 57° NNE 20:03:21 57° NNE
Cosmos 2263 Rocket 2.6 20:08:26 10° SW 20:13:30 62° W 20:13:30 62° W
Cosmos 2344 3.5 20:25:37 10° SW 20:33:13 72° NW 20:33:48 69° N
SL-16 R/B 4.0 20:40:36 10° NW 20:45:03 24° WSW 20:45:52 23° WSW
Cosmos 2227 Rocket 3.9 20:40:53 10° WSW 20:45:47 29° NW 20:47:09 26° NNW
ATLAS 2AS CENTAUR R/B 4.4 21:39:55 10° NW 21:42:45 25° NNW 21:42:45 25° NNW
